• In Germany
  • List of Countries
  • For 7 days
  • Water Temperature
  • Satellite Maps
  • Weather Map
  • Weather Widgets
  • user-avatar
    Login

    Hourly Weather Bangalore

    Today, 23 October, Tuesday

    Time Temperature Precipitation Wind Pressure Humidity
    00:00 +21°C° 0 mm 1 mps 684 mmHg 73%
    01:00 +21°C° 0 mm 1 mps 684 mmHg 75%
    02:00 +21°C° 0 mm 1 mps 684 mmHg 77%
    03:00 +20°C° 0 mm 1 mps 684 mmHg 77%
    04:00 +20°C° 0 mm 1 mps 684 mmHg 77%
    05:00 +20°C° 0 mm 1 mps 684 mmHg 80%
    06:00 +22°C° 0 mm 1 mps 685 mmHg 74%
    07:00 +23°C° 0 mm 1 mps 685 mmHg 67%
    08:00 +25°C° 0 mm 2 mps 686 mmHg 61%
    09:00 +26°C° 0 mm 2 mps 686 mmHg 54%
    10:00 +28°C° 0 mm 3 mps 686 mmHg 47%
    11:00 +30°C° 0 mm 3 mps 686 mmHg 40%
    12:00 +30°C° 0 mm 3 mps 686 mmHg 40%
    13:00 +30°C° 0 mm 3 mps 685 mmHg 39%
    14:00 +30°C° 0 mm 3 mps 685 mmHg 38%
    15:00 +29°C° 0 mm 3 mps 685 mmHg 44%
    16:00 +28°C° 0 mm 3 mps 685 mmHg 50%
    17:00 +27°C° 0 mm 2 mps 684 mmHg 56%
    18:00 +26°C° 0 mm 2 mps 685 mmHg 59%
    19:00 +24°C° 0 mm 2 mps 685 mmHg 62%
    20:00 +23°C° 0 mm 2 mps 685 mmHg 65%
    21:00 +23°C° 0 mm 2 mps 685 mmHg 68%
    22:00 +21°C° 0 mm 2 mps 685 mmHg 70%
    23:00 +21°C° 0 mm 2 mps 685 mmHg 73%

    Tomorrow, 24 October, Wednesday

    Time Temperature Precipitation Wind Pressure Humidity
    00:00 +21°C° 0 mm 2 mps 684 mmHg 74%
    01:00 +20°C° 0 mm 2 mps 684 mmHg 75%
    02:00 +21°C° 0 mm 1 mps 684 mmHg 76%
    03:00 +21°C° 0 mm 1 mps 684 mmHg 76%
    04:00 +20°C° 0 mm 1 mps 684 mmHg 76%
    05:00 +20°C° 0 mm 1 mps 684 mmHg 76%
    06:00 +21°C° 0 mm 2 mps 684 mmHg 69%
    07:00 +23°C° 0 mm 2 mps 685 mmHg 63%
    08:00 +25°C° 0 mm 3 mps 686 mmHg 56%
    09:00 +26°C° 0 mm 3 mps 686 mmHg 52%
    10:00 +28°C° 0 mm 4 mps 686 mmHg 48%
    11:00 +29°C° 0 mm 5 mps 686 mmHg 44%
    12:00 +29°C° 0 mm 5 mps 686 mmHg 44%
    13:00 +30°C° 0 mm 5 mps 685 mmHg 44%
    14:00 +30°C° 0 mm 5 mps 684 mmHg 44%
    15:00 +29°C° 0 mm 4 mps 684 mmHg 50%
    16:00 +27°C° 0 mm 3 mps 684 mmHg 55%
    17:00 +26°C° 0 mm 3 mps 684 mmHg 61%
    18:00 +25°C° 0 mm 3 mps 684 mmHg 64%
    19:00 +24°C° 0 mm 3 mps 685 mmHg 66%
    20:00 +23°C° 0 mm 2 mps 685 mmHg 69%
    21:00 +21°C° 0 mm 2 mps 685 mmHg 71%
    22:00 +21°C° 0 mm 2 mps 685 mmHg 72%
    23:00 +20°C° 0 mm 2 mps 685 mmHg 74%

    Day after tomorrow, 25 October, Thursday

    Time Temperature Precipitation Wind Pressure Humidity
    00:00 +20°C° 0 mm 2 mps 685 mmHg 74%
    01:00 +20°C° 0 mm 2 mps 684 mmHg 74%
    02:00 +19°C° 0 mm 2 mps 684 mmHg 75%
    03:00 +19°C° 0 mm 2 mps 684 mmHg 74%
    04:00 +19°C° 0 mm 2 mps 684 mmHg 72%
    05:00 +20°C° 0 mm 1 mps 684 mmHg 71%
    06:00 +20°C° 0 mm 2 mps 685 mmHg 67%
    07:00 +23°C° 0 mm 2 mps 686 mmHg 63%
    08:00 +24°C° 0 mm 3 mps 687 mmHg 59%
    09:00 +26°C° 0 mm 4 mps 687 mmHg 56%
    10:00 +27°C° 0 mm 4 mps 687 mmHg 53%
    11:00 +29°C° 0 mm 5 mps 687 mmHg 49%
    12:00 +29°C° 0 mm 5 mps 686 mmHg 49%
    13:00 +29°C° 0 mm 5 mps 685 mmHg 49%
    14:00 +30°C° 0 mm 5 mps 685 mmHg 49%
    15:00 +28°C° 0 mm 4 mps 685 mmHg 55%
    16:00 +27°C° 0 mm 4 mps 684 mmHg 60%
    17:00 +26°C° 0 mm 3 mps 684 mmHg 66%
    18:00 +25°C° 0 mm 3 mps 685 mmHg 71%
    19:00 +24°C° 0 mm 3 mps 686 mmHg 75%
    20:00 +22°C° 0 mm 3 mps 686 mmHg 79%
    21:00 +21°C° 0 mm 3 mps 686 mmHg 82%
    22:00 +21°C° 0 mm 3 mps 686 mmHg 85%
    23:00 +20°C° 0 mm 3 mps 686 mmHg 88%

    26 October, Friday

    Time Temperature Precipitation Wind Pressure Humidity
    00:00 +20°C° 0 mm 3 mps 686 mmHg 88%
    01:00 +19°C° 0 mm 3 mps 685 mmHg 89%
    02:00 +19°C° 0 mm 2 mps 685 mmHg 90%
    03:00 +19°C° 0 mm 2 mps 685 mmHg 89%
    04:00 +18°C° 0 mm 2 mps 685 mmHg 87%
    05:00 +18°C° 0 mm 2 mps 685 mmHg 86%
    06:00 +20°C° 0 mm 3 mps 686 mmHg 80%
    07:00 +21°C° 0 mm 4 mps 687 mmHg 74%
    08:00 +23°C° 0 mm 4 mps 687 mmHg 67%
    09:00 +25°C° 0 mm 5 mps 687 mmHg 62%
    10:00 +27°C° 0 mm 5 mps 687 mmHg 58%
    11:00 +28°C° 0 mm 5 mps 687 mmHg 53%
    12:00 +28°C° 0 mm 5 mps 687 mmHg 53%
    13:00 +29°C° 0 mm 5 mps 686 mmHg 53%
    14:00 +29°C° 0 mm 5 mps 685 mmHg 53%
    15:00 +28°C° 0 mm 5 mps 685 mmHg 58%
    16:00 +27°C° 0 mm 4 mps 685 mmHg 63%
    17:00 +26°C° 0 mm 4 mps 685 mmHg 68%
    18:00 +25°C° 0 mm 3 mps 685 mmHg 71%
    19:00 +24°C° 0 mm 3 mps 686 mmHg 75%
    20:00 +22°C° 0 mm 3 mps 686 mmHg 78%
    21:00 +21°C° 0 mm 3 mps 686 mmHg 81%
    22:00 +20°C° 0 mm 3 mps 686 mmHg 84%
    23:00 +20°C° 0 mm 3 mps 686 mmHg 87%

    27 October, Saturday

    Time Temperature Precipitation Wind Pressure Humidity
    00:00 +19°C° 0 mm 3 mps 685 mmHg 87%
    01:00 +19°C° 0 mm 3 mps 685 mmHg 86%
    02:00 +19°C° 0 mm 3 mps 684 mmHg 86%
    03:00 +18°C° 0 mm 3 mps 685 mmHg 86%
    04:00 +18°C° 0 mm 3 mps 685 mmHg 87%
    05:00 +18°C° 0 mm 2 mps 685 mmHg 87%
    06:00 +20°C° 0 mm 3 mps 686 mmHg 81%
    07:00 +21°C° 0 mm 4 mps 687 mmHg 74%
    08:00 +22°C° 0 mm 5 mps 687 mmHg 68%
    09:00 +25°C° 0 mm 5 mps 687 mmHg 64%
    10:00 +26°C° 0 mm 5 mps 687 mmHg 61%
    11:00 +27°C° 0 mm 5 mps 687 mmHg 58%
    12:00 +28°C° 0 mm 5 mps 686 mmHg 57%
    13:00 +28°C° 0 mm 5 mps 685 mmHg 57%
    14:00 +28°C° 0 mm 5 mps 685 mmHg 57%
    15:00 +27°C° 0 mm 4 mps 685 mmHg 62%
    16:00 +26°C° 0 mm 4 mps 685 mmHg 67%
    17:00 +25°C° 0 mm 3 mps 685 mmHg 72%
    18:00 +24°C° 0 mm 3 mps 685 mmHg 74%
    19:00 +22°C° 0 mm 3 mps 686 mmHg 75%
    20:00 +21°C° 0 mm 3 mps 686 mmHg 77%
    21:00 +21°C° 0 mm 3 mps 686 mmHg 79%
    22:00 +20°C° 0 mm 3 mps 686 mmHg 81%
    23:00 +20°C° 0 mm 3 mps 685 mmHg 83%

    28 October, Sunday

    Time Temperature Precipitation Wind Pressure Humidity
    00:00 +19°C° 0 mm 3 mps 685 mmHg 84%
    01:00 +19°C° 0 mm 2 mps 684 mmHg 84%
    02:00 +18°C° 0 mm 2 mps 684 mmHg 85%
    03:00 +18°C° 0 mm 2 mps 684 mmHg 83%
    04:00 +18°C° 0 mm 2 mps 684 mmHg 81%
    05:00 +18°C° 0 mm 2 mps 684 mmHg 80%
    06:00 +19°C° 0 mm 3 mps 685 mmHg 74%
    07:00 +21°C° 0 mm 3 mps 686 mmHg 69%
    08:00 +22°C° 0 mm 4 mps 687 mmHg 64%
    09:00 +25°C° 0 mm 4 mps 687 mmHg 59%
    10:00 +26°C° 0 mm 5 mps 686 mmHg 54%
    11:00 +28°C° 0 mm 5 mps 686 mmHg 50%
    12:00 +28°C° 0 mm 5 mps 686 mmHg 50%
    13:00 +28°C° 0 mm 5 mps 685 mmHg 51%
    14:00 +29°C° 0 mm 5 mps 684 mmHg 51%
    15:00 +28°C° 0.1 mm 5 mps 684 mmHg 56%
    16:00 +27°C° 0.1 mm 4 mps 684 mmHg 61%
    17:00 +25°C° 0.1 mm 4 mps 684 mmHg 67%
    18:00 +25°C° 0 mm 4 mps 685 mmHg 68%
    19:00 +23°C° 0 mm 4 mps 685 mmHg 70%
    20:00 +22°C° 0 mm 4 mps 685 mmHg 71%
    21:00 +21°C° 0 mm 4 mps 685 mmHg 73%
    22:00 +21°C° 0 mm 3 mps 685 mmHg 75%
    23:00 +20°C° 0 mm 3 mps 685 mmHg 78%

    29 October, Monday

    Time Temperature Precipitation Wind Pressure Humidity
    00:00 +20°C° 0 mm 3 mps 684 mmHg 77%
    01:00 +19°C° 0 mm 3 mps 684 mmHg 76%
    02:00 +19°C° 0 mm 3 mps 683 mmHg 76%
    03:00 +19°C° 0 mm 2 mps 683 mmHg 76%
    04:00 +18°C° 0 mm 2 mps 684 mmHg 76%
    05:00 +18°C° 0 mm 2 mps 684 mmHg 76%
    06:00 +19°C° 0 mm 3 mps 685 mmHg 73%
    07:00 +21°C° 0 mm 3 mps 685 mmHg 70%
    08:00 +22°C° 0 mm 4 mps 686 mmHg 67%
    09:00 +23°C° 0 mm 4 mps 686 mmHg 64%
    10:00 +26°C° 0 mm 4 mps 686 mmHg 61%
    11:00 +27°C° 0 mm 4 mps 685 mmHg 58%
    12:00 +28°C° 0.5 mm 4 mps 685 mmHg 59%
    13:00 +28°C° 0.5 mm 5 mps 684 mmHg 60%
    14:00 +28°C° 0.5 mm 5 mps 683 mmHg 62%
    15:00 +27°C° 0.8 mm 4 mps 683 mmHg 66%
    16:00 +26°C° 0.8 mm 4 mps 683 mmHg 70%
    17:00 +25°C° 0.8 mm 4 mps 683 mmHg 74%
    18:00 +23°C° 0.3 mm 4 mps 684 mmHg 77%
    19:00 +22°C° 0.3 mm 4 mps 684 mmHg 80%
    20:00 +21°C° 0.3 mm 4 mps 685 mmHg 84%
    21:00 +21°C° 0 mm 4 mps 685 mmHg 86%
    22:00 +21°C° 0 mm 3 mps 685 mmHg 88%
    23:00 +20°C° 0 mm 3 mps 684 mmHg 90%
    Show more